Albertville, AL

5:40 PM CST on December 11, 2017 (GMT -0600)
Albertville

Weather History for K8A0 - September, 2013

Change the Weather History Date:

Monday, September 30, 2013

  Actual Average (KGAD) Record (KGAD)
Temperature  
Mean Temperature 66 °F -  
Max Temperature 73 °F 77 °F 94 °F (1933)
Min Temperature 60 °F 53 °F 37 °F (1949)
Cooling Degree Days 2    
Growing Degree Days 16 (Base 50)    
Moisture  
Dew Point 39 °F    
Average Humidity 39    
Maximum Humidity 55    
Minimum Humidity 19    
Precipitation  
Precipitation 0.00 in - - ()
Sea Level Pressure  
Sea Level Pressure 30.04 in    
Wind  
Wind Speed 4 mph (SE)    
Max Wind Speed 8 mph    
Max Gust Speed -    
Visibility 10 miles    
Events      
Averages and records for this station are not official NWS values.
T = Trace of Precipitation, MM = Missing Value Source: NWS Daily Summary

Daily Weather History Graph

Daily Weather History Graph

Search for Another Location

Airport or City:

Trip Planner

Search our weather history database for the weather conditions in past years. The results will help you decide how hot, cold, wet, or windy it might be!

Date:

Astronomy

Sep. 30, 2013 Rise Set
Actual Time 6:39 AM CDT 6:30 PM CDT
Civil Twilight 6:14 AM CDT 6:55 PM CDT
Nautical Twilight 5:44 AM CDT 7:24 PM CDT
Astronomical Twilight 5:15 AM CDT 7:53 PM CDT
Moon 2:25 AM CDT (9/30) 3:52 PM CDT (9/30)
Length of Visible Light 12h 41m
Length of Day
11h 51m
Waning Crescent, 19% of the Moon is Illuminated
Sep 30
Waning Crescent
Oct 4
New
Oct 11
First Quarter
Oct 18
Full
Oct 26
Last Quarter

Hourly Weather History & Observations

Time (CDT) Temp. Dew Point Humidity Pressure Visibility Wind Dir Wind Speed Gust Speed Precip Events Conditions
12:15 AM 60.8 °F 37.4 °F 42% 30.02 in 10.0 mi ESE 3.5 mph - N/A   Mostly Cloudy
12:35 AM 60.8 °F 39.2 °F 45% 30.02 in 10.0 mi East 4.6 mph - N/A   Overcast
12:55 AM 60.8 °F 39.2 °F 45% 30.02 in 10.0 mi East 3.5 mph - N/A   Overcast
1:15 AM 60.8 °F 41.0 °F 48% 30.02 in 10.0 mi Calm Calm - N/A   Scattered Clouds
1:35 AM 60.8 °F 39.2 °F 45% 30.02 in 10.0 mi Calm Calm - N/A   Clear
1:55 AM 60.8 °F 41.0 °F 48% 30.03 in 10.0 mi Calm Calm - N/A   Mostly Cloudy
2:15 AM 60.8 °F 41.0 °F 48% 30.02 in 10.0 mi ESE 3.5 mph - N/A   Overcast
2:35 AM 60.8 °F 41.0 °F 48% 30.02 in 10.0 mi Calm Calm - N/A   Overcast
2:55 AM 60.8 °F 41.0 °F 48% 30.02 in 10.0 mi ESE 3.5 mph - N/A   Overcast
3:15 AM 60.8 °F 41.0 °F 48% 30.02 in 10.0 mi ESE 3.5 mph - N/A   Overcast
3:35 AM 60.8 °F 41.0 °F 48% 30.02 in 10.0 mi East 4.6 mph - N/A   Overcast
3:55 AM 60.8 °F 41.0 °F 48% 30.02 in 10.0 mi East 3.5 mph - N/A   Overcast
4:15 AM 60.8 °F 41.0 °F 48% 30.02 in 10.0 mi ESE 3.5 mph - N/A   Overcast
4:35 AM 60.8 °F 41.0 °F 48% 30.03 in 10.0 mi East 4.6 mph - N/A   Overcast
4:55 AM 60.8 °F 41.0 °F 48% 30.02 in 10.0 mi East 4.6 mph - N/A   Overcast
5:15 AM 60.8 °F 41.0 °F 48% 30.03 in 10.0 mi East 5.8 mph - N/A   Overcast
5:35 AM 60.8 °F 41.0 °F 48% 30.04 in 10.0 mi ESE 3.5 mph - N/A   Overcast
5:55 AM 60.8 °F 41.0 °F 48% 30.04 in 10.0 mi East 5.8 mph - N/A   Overcast
6:15 AM 60.8 °F 41.0 °F 48% 30.04 in 10.0 mi East 3.5 mph - N/A   Overcast
6:35 AM 60.8 °F 41.0 °F 48% 30.05 in 10.0 mi ESE 4.6 mph - N/A   Overcast
6:55 AM 60.8 °F 42.8 °F 52% 30.06 in 10.0 mi East 5.8 mph - N/A   Overcast
7:15 AM 60.8 °F 42.8 °F 52% 30.07 in 10.0 mi ESE 3.5 mph - N/A   Overcast
7:35 AM 60.8 °F 42.8 °F 52% 30.07 in 10.0 mi ESE 3.5 mph - N/A   Overcast
7:55 AM 60.8 °F 42.8 °F 52% 30.07 in 10.0 mi East 4.6 mph - N/A   Overcast
8:15 AM 60.8 °F 41.0 °F 48% 30.08 in 10.0 mi Calm Calm - N/A   Overcast
8:35 AM 62.6 °F 42.8 °F 48% 30.08 in 10.0 mi Calm Calm - N/A   Overcast
8:55 AM 62.6 °F 41.0 °F 45% 30.09 in 10.0 mi ESE 3.5 mph - N/A   Overcast
9:15 AM 62.6 °F 41.0 °F 45% 30.08 in 10.0 mi ESE 3.5 mph - N/A   Overcast
9:35 AM 64.4 °F 39.2 °F 40% 30.09 in 10.0 mi ESE 3.5 mph - N/A   Overcast
9:55 AM 64.4 °F 37.4 °F 37% 30.09 in 7.0 mi SE 3.5 mph - N/A   Overcast
10:15 AM 66.2 °F 37.4 °F 35% 30.09 in 10.0 mi Calm Calm - N/A   Overcast
10:35 AM 66.2 °F 35.6 °F 32% 30.09 in 10.0 mi SSE 3.5 mph - N/A   Overcast
10:55 AM 68.0 °F 35.6 °F 30% 30.09 in 10.0 mi South 5.8 mph - N/A   Overcast
11:15 AM 69.8 °F 32.0 °F 25% 30.08 in 10.0 mi South 6.9 mph - N/A   Mostly Cloudy
11:35 AM 69.8 °F 32.0 °F 25% 30.08 in 10.0 mi SSE 4.6 mph - N/A   Mostly Cloudy
11:55 AM 69.8 °F 32.0 °F 25% 30.08 in 10.0 mi SSW 3.5 mph - N/A   Overcast
12:15 PM 71.6 °F 30.2 °F 22% 30.07 in 10.0 mi Calm Calm - N/A   Overcast
12:35 PM 69.8 °F 30.2 °F 23% 30.07 in 10.0 mi SSW 5.8 mph - N/A   Overcast
12:55 PM 68.0 °F 41.0 °F 37% 30.06 in 10.0 mi WSW 5.8 mph - N/A   Drizzle
1:15 PM 69.8 °F 37.4 °F 31% 30.04 in 10.0 mi SW 4.6 mph - N/A   Overcast
1:35 PM 69.8 °F 33.8 °F 27% 30.03 in 10.0 mi SSE 3.5 mph - N/A   Overcast
1:55 PM 69.8 °F 33.8 °F 27% 30.02 in 10.0 mi Calm Calm - N/A   Mostly Cloudy
2:15 PM 71.6 °F 32.0 °F 23% 30.02 in 10.0 mi Calm Calm - N/A   Overcast
2:35 PM 71.6 °F 30.2 °F 22% 30.01 in 10.0 mi South 4.6 mph - N/A   Overcast
2:55 PM 71.6 °F 32.0 °F 23% 30.01 in 10.0 mi SSE 3.5 mph - N/A   Overcast
3:15 PM 73.4 °F 30.2 °F 20% 30.01 in 10.0 mi SSE 5.8 mph - N/A   Scattered Clouds
3:35 PM 71.6 °F 32.0 °F 23% 30.01 in 10.0 mi SSE 4.6 mph - N/A   Clear
3:55 PM 73.4 °F 32.0 °F 22% 30.00 in 10.0 mi South 8.1 mph - N/A   Clear
4:15 PM 73.4 °F 30.2 °F 20% 30.00 in 10.0 mi South 5.8 mph - N/A   Clear
4:35 PM 73.4 °F 28.4 °F 19% 30.00 in 10.0 mi SSE 4.6 mph - N/A   Clear
4:55 PM 73.4 °F 30.2 °F 20% 30.01 in 10.0 mi SE 3.5 mph - N/A   Clear
5:15 PM 71.6 °F 33.8 °F 25% 30.01 in 10.0 mi SE 3.5 mph - N/A   Clear
5:35 PM 71.6 °F 35.6 °F 27% 30.01 in 10.0 mi ESE 3.5 mph - N/A   Clear
5:55 PM 69.8 °F 37.4 °F 31% 30.01 in 10.0 mi ESE 3.5 mph - N/A   Clear
6:15 PM 69.8 °F 37.4 °F 31% 30.01 in 10.0 mi ESE 3.5 mph - N/A   Clear
6:35 PM 68.0 °F 39.2 °F 35% 30.02 in 10.0 mi SE 4.6 mph - N/A   Clear
6:55 PM 68.0 °F 41.0 °F 37% 30.03 in 10.0 mi ESE 3.5 mph - N/A   Clear
7:15 PM 68.0 °F 41.0 °F 37% 30.03 in 10.0 mi ESE 4.6 mph - N/A   Clear
7:35 PM 66.2 °F 41.0 °F 40% 30.03 in 10.0 mi ESE 3.5 mph - N/A   Clear
7:55 PM 64.4 °F 42.8 °F 45% 30.04 in 10.0 mi ESE 4.6 mph - N/A   Clear
8:15 PM 66.2 °F 41.0 °F 40% 30.04 in 10.0 mi ESE 5.8 mph - N/A   Clear
8:35 PM 66.2 °F 41.0 °F 40% 30.05 in 10.0 mi ESE 5.8 mph - N/A   Clear
8:55 PM 64.4 °F 41.0 °F 42% 30.06 in 10.0 mi ESE 4.6 mph - N/A   Clear
9:15 PM 64.4 °F 41.0 °F 42% 30.06 in 10.0 mi SE 5.8 mph - N/A   Clear
9:35 PM 64.4 °F 41.0 °F 42% 30.07 in 10.0 mi ESE 4.6 mph - N/A   Clear
9:55 PM 64.4 °F 42.8 °F 45% 30.06 in 10.0 mi ESE 4.6 mph - N/A   Clear
10:15 PM 62.6 °F 44.6 °F 52% 30.06 in 10.0 mi East 4.6 mph - N/A   Scattered Clouds
10:35 PM 62.6 °F 42.8 °F 48% 30.06 in 10.0 mi East 3.5 mph - N/A   Clear
10:55 PM 62.6 °F 42.8 °F 48% 30.06 in 10.0 mi ESE 4.6 mph - N/A   Clear
11:15 PM 62.6 °F 46.4 °F 55% 30.06 in 10.0 mi East 4.6 mph - N/A   Clear
11:35 PM 62.6 °F 44.6 °F 52% 30.06 in 10.0 mi East 3.5 mph - N/A   Clear
11:55 PM 62.6 °F 44.6 °F 52% 30.05 in 10.0 mi East 4.6 mph - N/A   Clear